OK1TBF-14 Weather Reports


Display with metric or nautical units.
time (UTC)temp
F
wind
direction
speed
MPH
gust
MPH
rain 1hr
in
rain 24hr
in
rain mn
in
humidity
%
barometer
mb
20260905161003 66 311 7.0 16.0 0.00 0.15 0.15 51 1019.1
20260905160003 66 302 8.0 17.0 0.00 0.15 0.15 50 1018.9
20260905155003 66 309 8.0 19.0 0.00 0.15 0.15 50 1018.8
20260905154003 66 306 7.0 16.0 0.00 0.15 0.15 51 1018.7
20260905153003 67 295 9.0 22.0 0.00 0.15 0.15 51 1018.6
20260905152003 67 296 8.0 18.0 0.00 0.15 0.15 51 1018.6
20260905151024 66 312 9.0 19.0 0.00 0.15 0.15 51 1018.8
20260905150003 66 308 9.0 17.0 0.00 0.15 0.15 52 1018.7
20260905145003 67 304 10.0 18.0 0.00 0.15 0.15 51 1018.6
20260905144024 69 282 10.0 20.0 0.00 0.15 0.15 50 1018.8
20260905143003 69 272 12.0 21.0 0.00 0.15 0.15 50 1018.7
20260905142003 69 283 10.0 20.0 0.00 0.15 0.15 50 1018.5
20260905141003 69 268 13.0 23.0 0.00 0.15 0.15 52 1018.7
20260905140004 68 278 12.0 27.0 0.00 0.15 0.15 53 1018.7
20260905135003 67 260 14.0 26.0 0.00 0.15 0.15 54 1018.7
20260905134003 67 281 11.0 24.0 0.00 0.15 0.15 55 1018.9
20260905133024 66 286 10.0 21.0 0.00 0.15 0.15 55 1018.9
20260905132003 66 305 7.0 15.0 0.00 0.15 0.15 56 1018.7
20260905131003 65 307 7.0 15.0 0.00 0.15 0.15 59 1019.1
20260905130003 65 306 7.0 14.0 0.00 0.15 0.15 57 1019.1
20260905125005 65 305 7.0 15.0 0.00 0.15 0.15 57 1019.1
20260905124003 66 306 7.0 18.0 0.00 0.15 0.15 54 1019.3
20260905123003 67 298 10.0 20.0 0.00 0.15 0.15 54 1019.2
20260905122003 67 272 13.0 24.0 0.00 0.15 0.15 53 1019.4
20260905121003 67 273 12.0 21.0 0.00 0.15 0.15 55 1019.3
20260905120003 66 265 13.0 23.0 0.00 0.15 0.15 58 1019.3
20260905115003 65 268 11.0 22.0 0.00 0.15 0.15 62 1019.5
20260905114003 64 281 11.0 19.0 0.00 0.15 0.15 61 1019.3
20260905113003 65 276 13.0 26.0 0.00 0.15 0.15 60 1019.2
20260905112003 64 282 10.0 24.0 0.00 0.15 0.15 64 1019.4
20260905111004 63 282 10.0 19.0 0.00 0.15 0.15 67 1019.2
20260905110004 64 279 9.0 18.0 0.00 0.15 0.15 67 1019.4
20260905105004 63 297 7.0 15.0 0.00 0.15 0.15 70 1019.3
20260905104004 64 275 11.0 24.0 0.00 0.15 0.15 66 1019.2
20260905103004 65 260 12.0 22.0 0.00 0.15 0.15 66 1019.1
20260905102004 65 265 10.0 20.0 0.00 0.15 0.15 70 1019.1
20260905101004 64 265 9.0 20.0 0.00 0.15 0.15 73 1019.1
20260905100004 63 279 10.0 19.0 0.00 0.15 0.15 74 1018.8
20260905095004 64 270 9.0 19.0 0.00 0.15 0.15 75 1019.2
20260905094025 62 278 9.0 16.0 0.00 0.15 0.15 76 1019.3
20260905093025 63 259 10.0 20.0 0.00 0.15 0.15 75 1019.1
20260905092005 63 262 8.0 16.0 0.00 0.15 0.15 78 1019.4
20260905091004 62 271 8.0 17.0 0.00 0.15 0.15 80 1019.2
20260905090004 61 280 7.0 15.0 0.00 0.15 0.15 80 1019.2
20260905085025 60 283 9.0 16.0 0.00 0.15 0.15 81 1019.2
20260905084004 60 294 7.0 14.0 0.00 0.15 0.15 83 1019.1
20260905083004 60 282 7.0 16.0 0.00 0.15 0.15 83 1019.1
20260905082004 59 274 7.0 16.0 0.00 0.15 0.15 83 1019.1
20260905081004 59 281 8.0 14.0 0.00 0.15 0.15 83 1018.7
20260905080004 58 291 7.0 16.0 0.00 0.15 0.15 84 1018.8
20260905075004 58 281 7.0 15.0 0.00 0.15 0.15 84 1018.5
20260905074004 59 265 8.0 15.0 0.00 0.15 0.15 84 1018.5
20260905073004 58 260 7.0 13.0 0.00 0.15 0.15 86 1018.4
20260905072025 58 262 8.0 14.0 0.00 0.15 0.15 87 1018.6
20260905071004 57 253 8.0 13.0 0.00 0.15 0.15 88 1018.5
20260905070004 56 256 6.0 12.0 0.00 0.15 0.15 89 1018.4
20260905065025 56 252 7.0 12.0 0.00 0.15 0.15 89 1018.6
20260905064004 56 254 6.0 10.0 0.00 0.15 0.15 89 1018.4
20260905063025 56 260 6.0 12.0 0.00 0.15 0.15 89 1018.1
20260905062004 55 254 8.0 15.0 0.00 0.15 0.15 89 1018.2
20260905061004 55 259 8.0 13.0 0.00 0.15 0.15 89 1017.9
20260905060004 55 263 8.0 15.0 0.00 0.15 0.15 89 1018.2
20260905055025 55 253 10.0 17.0 0.01 0.15 0.15 89 1018.0
20260905054025 55 247 6.0 11.0 0.02 0.15 0.15 89 1017.5
20260905053004 55 264 6.0 12.0 0.05 0.15 0.15 90 1017.7
20260905052004 55 257 7.0 17.0 0.07 0.15 0.15 91 1017.6
20260905051025 55 219 11.0 17.0 0.07 0.15 0.15 88 1016.1
20260905050025 56 240 9.0 17.0 0.08 0.15 0.15 87 1016.9
20260905045004 57 247 14.0 23.0 0.09 0.14 0.14 86 1017.2
20260905044004 58 248 14.0 23.0 0.09 0.13 0.13 89 1017.3
20260905043004 58 250 10.0 21.0 0.06 0.10 0.10 91 1017.4
20260905042004 58 282 4.0 10.0 0.04 0.08 0.08 89 1016.9
20260905041004 58 294 4.0 7.0 0.03 0.07 0.07 88 1016.3
20260905040004 59 279 4.0 9.0 0.02 0.06 0.06 89 1016.8
20260905035004 59 255 5.0 9.0 0.02 0.06 0.06 89 1017.4
20260905034004 59 233 5.0 8.0 0.01 0.05 0.05 88 1016.9
20260905033004 59 246 4.0 8.0 0.02 0.05 0.05 88 1016.2
20260905032004 59 254 3.0 7.0 0.02 0.04 0.04 88 1016.1
20260905031004 59 251 5.0 10.0 0.02 0.04 0.04 88 1016.1
20260905030004 59 255 5.0 10.0 0.02 0.04 0.04 87 1015.9
20260905025004 59 268 4.0 10.0 0.02 0.04 0.04 87 1016.1
20260905024004 60 265 4.0 10.0 0.02 0.04 0.04 87 1016.2
20260905023004 60 290 4.0 11.0 0.01 0.03 0.03 87 1016.0
20260905022025 60 303 4.0 9.0 0.00 0.02 0.02 87 1016.2
20260905021004 60 303 4.0 8.0 0.00 0.02 0.02 86 1015.7
20260905020004 60 309 3.0 9.0 0.00 0.02 0.02 83 1015.4
20260905015004 61 321 4.0 8.0 0.00 0.02 0.02 82 1015.4
20260905014004 61 311 4.0 8.0 0.01 0.02 0.02 79 1015.2
20260905013004 61 314 5.0 9.0 0.01 0.02 0.02 78 1015.3
20260905012004 62 319 7.0 14.0 0.01 0.02 0.02 76 1015.2
20260905011004 62 319 8.0 14.0 0.01 0.02 0.02 76 1015.3
20260905010004 62 312 7.0 14.0 0.02 0.02 0.02 76 1015.5
20260905005004 63 310 7.0 15.0 0.02 0.02 0.02 75 1015.3
20260905004004 63 310 7.0 15.0 0.01 0.01 0.01 74 1015.2
20260905003004 63 305 5.0 12.0 0.01 0.01 0.01 73 1014.9
20260905002004 64 310 6.0 11.0 0.01 0.01 0.01 73 1014.8
20260905001004 65 316 8.0 15.0 0.01 0.01 0.01 70 1014.8
20260905000004 65 318 9.0 20.0 0.00 0.00 0.00 66 1014.2
20260904235004 65 331 6.0 14.0 0.00 0.00 0.00 68 1013.5
20260904234004 65 344 7.0 15.0 0.00 0.00 0.00 68 1013.6
20260904233004 66 325 7.0 18.0 0.00 0.00 0.00 69 1013.5
20260904232004 67 310 7.0 16.0 0.00 0.00 0.00 70 1012.9
20260904231004 68 303 7.0 12.0 0.00 0.00 0.00 69 1012.7
20260904230025 69 300 6.0 14.0 0.00 0.00 0.00 66 1012.7
20260904225004 69 260 2.0 5.0 0.00 0.00 0.00 64 1011.9
20260904224004 70 295 2.0 3.0 0.00 0.00 0.00 64 1011.7
20260904223004 70 320 3.0 5.0 0.00 0.00 0.00 63 1012.0
20260904222004 70 312 3.0 5.0 0.00 0.00 0.00 63 1011.8
20260904221004 70 304 3.0 6.0 0.00 0.00 0.00 63 1011.7
20260904220004 70 239 4.0 9.0 0.00 0.00 0.00 62 1011.7
20260904215004 70 202 4.0 8.0 0.00 0.00 0.00 61 1011.5
20260904214025 71 184 4.0 7.0 0.00 0.00 0.00 61 1011.4
20260904213004 71 183 5.0 9.0 0.00 0.00 0.00 60 1011.2
20260904212004 71 181 5.0 10.0 0.00 0.00 0.00 60 1011.2
20260904211004 71 182 5.0 9.0 0.00 0.00 0.00 61 1011.1
20260904210004 71 185 5.0 9.0 0.00 0.00 0.00 61 1011.2
20260904205025 71 184 5.0 10.0 0.00 0.00 0.00 61 1011.3
20260904204004 71 181 5.0 9.0 0.00 0.00 0.00 61 1011.4
20260904203004 71 185 4.0 8.0 0.00 0.00 0.00 61 1011.6
20260904202004 71 182 4.0 7.0 0.00 0.00 0.00 61 1011.5
20260904201004 71 195 4.0 10.0 0.00 0.00 0.00 61 1011.5
20260904200004 71 198 4.0 9.0 0.00 0.00 0.00 61 1011.5
20260904195004 71 189 4.0 8.0 0.00 0.00 0.00 61 1011.8
20260904194025 72 183 5.0 9.0 0.00 0.00 0.00 60 1011.8
20260904193004 72 178 4.0 8.0 0.00 0.00 0.00 60 1011.8
20260904192004 72 180 5.0 9.0 0.00 0.00 0.00 60 1011.7
20260904191004 73 181 5.0 9.0 0.00 0.00 0.00 60 1011.7
20260904190025 73 179 5.0 10.0 0.00 0.00 0.00 60 1011.8
20260904185025 73 178 4.0 7.0 0.00 0.00 0.00 60 1011.6
20260904184004 74 180 4.0 9.0 0.00 0.00 0.00 60 1011.9
20260904183004 74 183 3.0 6.0 0.00 0.00 0.00 60 1011.9
20260904182004 74 190 3.0 6.0 0.00 0.00 0.00 60 1012.3
20260904181004 74 193 3.0 6.0 0.00 0.00 0.00 60 1012.0
20260904180004 74 205 4.0 6.0 0.00 0.00 0.00 60 1012.3
20260904175004 74 206 3.0 5.0 0.00 0.00 0.00 61 1012.1
20260904174025 74 209 3.0 6.0 0.00 0.00 0.00 60 1012.1
20260904173004 74 232 4.0 6.0 0.00 0.00 0.00 59 1012.0
20260904172004 75 245 5.0 7.0 0.00 0.00 0.00 58 1011.8
20260904171004 76 245 4.0 8.0 0.00 0.00 0.00 57 1011.7
20260904170004 76 249 5.0 8.0 0.00 0.00 0.00 56 1011.7
20260904165004 77 256 5.0 8.0 0.00 0.00 0.00 55 1011.7
20260904164004 77 256 5.0 12.0 0.00 0.00 0.00 54 1011.7
20260904163004 78 249 7.0 13.0 0.00 0.00 0.00 54 1011.5
20260904162004 78 248 9.0 15.0 0.00 0.00 0.00 52 1011.7